Year,Month,Day,Hour,Minute,Value (Times are PST for windspeed in km/hr)
2010,05,19,00,00,6.30
2010,05,19,00,01,5.90
2010,05,19,00,02,5.80
2010,05,19,00,03,7.50
2010,05,19,00,04,5.80
2010,05,19,00,05,5.10
2010,05,19,00,06,3.80
2010,05,19,00,07,3.20
2010,05,19,00,08,5.70
2010,05,19,00,09,6.00
2010,05,19,00,10,6.50
2010,05,19,00,11,5.90
2010,05,19,00,12,8.80
2010,05,19,00,13,7.00
2010,05,19,00,14,9.50
2010,05,19,00,15,12.50
2010,05,19,00,16,5.90
2010,05,19,00,17,5.10
2010,05,19,00,18,7.10
2010,05,19,00,19,8.20
2010,05,19,00,20,5.20
2010,05,19,00,21,12.10
2010,05,19,00,22,6.40
2010,05,19,00,23,2.80
2010,05,19,00,24,0.70
2010,05,19,00,25,5.60
2010,05,19,00,26,5.30
2010,05,19,00,27,6.10
2010,05,19,00,28,4.00
2010,05,19,00,29,5.70
2010,05,19,00,30,6.70
2010,05,19,00,31,10.50
2010,05,19,00,32,15.80
2010,05,19,00,33,16.90
2010,05,19,00,34,12.40
2010,05,19,00,35,8.80
2010,05,19,00,36,9.10
2010,05,19,00,37,9.90
2010,05,19,00,38,10.90
2010,05,19,00,39,10.80
2010,05,19,00,40,9.00
2010,05,19,00,41,7.80
2010,05,19,00,42,14.80
2010,05,19,00,43,13.40
2010,05,19,00,44,10.80
2010,05,19,00,45,13.00
2010,05,19,00,46,13.00
2010,05,19,00,47,10.90
2010,05,19,00,48,17.00
2010,05,19,00,49,19.50
2010,05,19,00,50,17.50
2010,05,19,00,51,16.10
2010,05,19,00,52,16.90
2010,05,19,00,53,14.70
2010,05,19,00,54,15.10
2010,05,19,00,55,12.30
2010,05,19,00,56,9.50
2010,05,19,00,57,14.20
2010,05,19,00,58,15.70
2010,05,19,00,59,16.90
2010,05,19,01,00,21.50
2010,05,19,01,01,17.20
2010,05,19,01,02,25.10
2010,05,19,01,03,16.70
2010,05,19,01,04,18.20
2010,05,19,01,05,17.50
2010,05,19,01,06,18.50
2010,05,19,01,07,16.40
2010,05,19,01,08,16.10
2010,05,19,01,09,15.60
2010,05,19,01,10,21.30
2010,05,19,01,11,17.50
2010,05,19,01,12,16.20
2010,05,19,01,13,22.50
2010,05,19,01,14,20.20
2010,05,19,01,15,16.20
2010,05,19,01,16,15.40
2010,05,19,01,17,10.90
2010,05,19,01,18,19.20
2010,05,19,01,19,16.10
2010,05,19,01,20,20.10
2010,05,19,01,21,22.10
2010,05,19,01,22,18.80
2010,05,19,01,23,17.80
2010,05,19,01,24,17.60
2010,05,19,01,25,14.50
2010,05,19,01,26,19.10
2010,05,19,01,27,18.50
2010,05,19,01,28,16.90
2010,05,19,01,29,19.20
2010,05,19,01,30,19.10
2010,05,19,01,31,15.70
2010,05,19,01,32,16.00
2010,05,19,01,33,16.70
2010,05,19,01,34,17.90
2010,05,19,01,35,13.40
2010,05,19,01,36,13.90
2010,05,19,01,37,15.70
2010,05,19,01,38,13.60
2010,05,19,01,39,17.90
2010,05,19,01,40,14.10
2010,05,19,01,41,9.30
2010,05,19,01,42,10.20
2010,05,19,01,43,12.30
2010,05,19,01,44,12.00
2010,05,19,01,45,16.70
2010,05,19,01,46,20.40
2010,05,19,01,47,18.90
2010,05,19,01,48,17.10
2010,05,19,01,49,14.60
2010,05,19,01,50,11.10
2010,05,19,01,51,14.50
2010,05,19,01,52,17.20
2010,05,19,01,53,15.40
2010,05,19,01,54,17.20
2010,05,19,01,55,13.10
2010,05,19,01,56,17.40
2010,05,19,01,57,15.70
2010,05,19,01,58,16.50
2010,05,19,01,59,13.70
2010,05,19,02,00,15.20
2010,05,19,02,01,15.60
2010,05,19,02,02,12.90
2010,05,19,02,03,15.40
2010,05,19,02,04,16.60
2010,05,19,02,05,15.40
2010,05,19,02,06,13.90
2010,05,19,02,07,14.50
2010,05,19,02,08,18.60
2010,05,19,02,09,18.50
2010,05,19,02,10,18.90
2010,05,19,02,11,14.50
2010,05,19,02,12,13.50
2010,05,19,02,13,23.10
2010,05,19,02,14,19.10
2010,05,19,02,15,16.90
2010,05,19,02,16,13.00
2010,05,19,02,17,15.50
2010,05,19,02,18,17.90
2010,05,19,02,19,17.90
2010,05,19,02,20,20.00
2010,05,19,02,21,17.30
2010,05,19,02,22,15.40
2010,05,19,02,23,16.20
2010,05,19,02,24,12.20
2010,05,19,02,25,12.90
2010,05,19,02,26,14.20
2010,05,19,02,27,15.90
2010,05,19,02,28,18.00
2010,05,19,02,29,14.20
2010,05,19,02,30,15.10
2010,05,19,02,31,10.50
2010,05,19,02,32,13.00
2010,05,19,02,33,17.80
2010,05,19,02,34,10.50
2010,05,19,02,35,13.20
2010,05,19,02,36,12.60
2010,05,19,02,37,11.90
2010,05,19,02,38,11.10
2010,05,19,02,39,15.10
2010,05,19,02,40,12.50
2010,05,19,02,41,14.80
2010,05,19,02,42,14.70
2010,05,19,02,43,10.40
2010,05,19,02,44,16.90
2010,05,19,02,45,12.60
2010,05,19,02,46,14.90
2010,05,19,02,47,16.90
2010,05,19,02,48,16.50
2010,05,19,02,49,13.00
2010,05,19,02,50,19.80
2010,05,19,02,51,18.10
2010,05,19,02,52,19.30
2010,05,19,02,53,21.80
2010,05,19,02,54,13.00
2010,05,19,02,55,13.00
2010,05,19,02,56,13.40
2010,05,19,02,57,15.20
2010,05,19,02,58,18.00
2010,05,19,02,59,19.60
2010,05,19,03,00,16.30
2010,05,19,03,01,17.10
2010,05,19,03,02,13.70
2010,05,19,03,03,15.20
2010,05,19,03,04,16.40
2010,05,19,03,05,15.10
2010,05,19,03,06,16.70
2010,05,19,03,07,16.20
2010,05,19,03,08,16.90
2010,05,19,03,09,16.80
2010,05,19,03,10,18.10
2010,05,19,03,11,11.90
2010,05,19,03,12,13.20
2010,05,19,03,13,15.70
2010,05,19,03,14,16.90
2010,05,19,03,15,12.60
2010,05,19,03,16,14.10
2010,05,19,03,17,15.90
2010,05,19,03,18,16.50
2010,05,19,03,19,17.40
2010,05,19,03,20,16.00
2010,05,19,03,21,18.00
2010,05,19,03,22,15.90
2010,05,19,03,23,17.40
2010,05,19,03,24,18.70
2010,05,19,03,25,17.70
2010,05,19,03,26,16.90
2010,05,19,03,27,17.60
2010,05,19,03,28,14.30
2010,05,19,03,29,9.10
2010,05,19,03,30,14.30
2010,05,19,03,31,14.90
2010,05,19,03,32,13.10
2010,05,19,03,33,14.40
2010,05,19,03,34,15.20
2010,05,19,03,35,15.20
2010,05,19,03,36,15.20
2010,05,19,03,37,14.20
2010,05,19,03,38,20.00
2010,05,19,03,39,14.10
2010,05,19,03,40,16.50
2010,05,19,03,41,15.00
2010,05,19,03,42,14.50
2010,05,19,03,43,17.00
2010,05,19,03,44,13.20
2010,05,19,03,45,16.30
2010,05,19,03,46,12.70
2010,05,19,03,47,14.10
2010,05,19,03,48,16.60
2010,05,19,03,49,15.40
2010,05,19,03,50,14.20
2010,05,19,03,51,14.50
2010,05,19,03,52,13.80
2010,05,19,03,53,14.30
2010,05,19,03,54,14.70
2010,05,19,03,55,12.30
2010,05,19,03,56,15.50
2010,05,19,03,57,13.80
2010,05,19,03,58,13.60
2010,05,19,03,59,18.50
2010,05,19,04,00,14.60
2010,05,19,04,01,16.40
2010,05,19,04,02,15.10
2010,05,19,04,03,14.40
2010,05,19,04,04,13.80
2010,05,19,04,05,15.20
2010,05,19,04,06,13.30
2010,05,19,04,07,13.50
2010,05,19,04,08,15.00
2010,05,19,04,09,12.60
2010,05,19,04,10,14.90
2010,05,19,04,11,16.70
2010,05,19,04,12,16.80
2010,05,19,04,13,14.30
2010,05,19,04,14,15.90
2010,05,19,04,15,15.20
2010,05,19,04,16,14.60
2010,05,19,04,17,13.80
2010,05,19,04,18,19.30
2010,05,19,04,19,20.20
2010,05,19,04,20,18.20
2010,05,19,04,21,17.00
2010,05,19,04,22,14.40
2010,05,19,04,23,15.20
2010,05,19,04,24,18.90
2010,05,19,04,25,20.20
2010,05,19,04,26,16.90
2010,05,19,04,27,17.90
2010,05,19,04,28,15.40
2010,05,19,04,29,21.10
2010,05,19,04,30,16.50
2010,05,19,04,31,15.40
2010,05,19,04,32,15.90
2010,05,19,04,33,20.70
2010,05,19,04,34,19.20
2010,05,19,04,35,19.50
2010,05,19,04,36,19.30
2010,05,19,04,37,17.30
2010,05,19,04,38,16.10
2010,05,19,04,39,13.00
2010,05,19,04,40,16.90
2010,05,19,04,41,12.50
2010,05,19,04,42,13.00
2010,05,19,04,43,15.20
2010,05,19,04,44,13.90
2010,05,19,04,45,17.60
2010,05,19,04,46,14.10
2010,05,19,04,47,14.10
2010,05,19,04,48,15.70
2010,05,19,04,49,13.00
2010,05,19,04,50,13.60
2010,05,19,04,51,11.80
2010,05,19,04,52,15.20
2010,05,19,04,53,11.80
2010,05,19,04,54,18.30
2010,05,19,04,55,14.70
2010,05,19,04,56,20.20
2010,05,19,04,57,18.70
2010,05,19,04,58,19.00
2010,05,19,04,59,17.30
2010,05,19,05,00,11.30
2010,05,19,05,01,14.00
2010,05,19,05,02,17.60
2010,05,19,05,03,20.80
2010,05,19,05,04,20.20
2010,05,19,05,05,21.10
2010,05,19,05,06,18.90
2010,05,19,05,07,16.40
2010,05,19,05,08,13.20
2010,05,19,05,09,15.00
2010,05,19,05,10,11.00
2010,05,19,05,11,9.40
2010,05,19,05,12,13.30
2010,05,19,05,13,16.40
2010,05,19,05,14,18.60
2010,05,19,05,15,16.10
2010,05,19,05,16,14.60
2010,05,19,05,17,12.00
2010,05,19,05,18,12.50
2010,05,19,05,19,10.90
2010,05,19,05,20,10.90
2010,05,19,05,21,12.90
2010,05,19,05,22,14.90
2010,05,19,05,23,18.60
2010,05,19,05,24,12.90
2010,05,19,05,25,16.30
2010,05,19,05,26,21.20
2010,05,19,05,27,20.10
2010,05,19,05,28,17.80
2010,05,19,05,29,14.20
2010,05,19,05,30,15.60
2010,05,19,05,31,18.30
2010,05,19,05,32,21.20
2010,05,19,05,33,23.70
2010,05,19,05,34,17.40
2010,05,19,05,35,18.00
2010,05,19,05,36,18.60
2010,05,19,05,37,18.30
2010,05,19,05,38,24.10
2010,05,19,05,39,15.70
2010,05,19,05,40,21.30
2010,05,19,05,41,19.30
2010,05,19,05,42,24.20
2010,05,19,05,43,21.40
2010,05,19,05,44,22.30
2010,05,19,05,45,24.90
2010,05,19,05,46,21.20
2010,05,19,05,47,22.90
2010,05,19,05,48,23.80
2010,05,19,05,49,22.00
2010,05,19,05,50,23.70
2010,05,19,05,51,23.70
2010,05,19,05,52,14.90
2010,05,19,05,53,20.90
2010,05,19,05,54,17.30
2010,05,19,05,55,26.70
2010,05,19,05,56,17.50
2010,05,19,05,57,18.90
2010,05,19,05,58,19.20
2010,05,19,05,59,18.80
2010,05,19,06,00,17.00
2010,05,19,06,01,22.00
2010,05,19,06,02,19.70
2010,05,19,06,03,21.50
2010,05,19,06,04,24.00
2010,05,19,06,05,19.80
2010,05,19,06,06,14.10
2010,05,19,06,07,17.50
2010,05,19,06,08,21.90
2010,05,19,06,09,20.40
2010,05,19,06,10,20.80
2010,05,19,06,11,26.20
2010,05,19,06,12,19.60
2010,05,19,06,13,22.20
2010,05,19,06,14,22.50
2010,05,19,06,15,20.10
2010,05,19,06,16,19.20
2010,05,19,06,17,18.10
2010,05,19,06,18,18.40
2010,05,19,06,19,15.40
2010,05,19,06,20,21.30
2010,05,19,06,21,22.10
2010,05,19,06,22,23.50
2010,05,19,06,23,21.10
2010,05,19,06,24,21.00
2010,05,19,06,25,23.30
2010,05,19,06,26,15.50
2010,05,19,06,27,20.20
2010,05,19,06,28,19.30
2010,05,19,06,29,23.90
2010,05,19,06,30,21.70
2010,05,19,06,31,19.00
2010,05,19,06,32,14.90
2010,05,19,06,33,22.40
2010,05,19,06,34,24.50
2010,05,19,06,35,20.10
2010,05,19,06,36,27.40
2010,05,19,06,37,18.50
2010,05,19,06,38,18.50
2010,05,19,06,39,22.70
2010,05,19,06,40,22.60
2010,05,19,06,41,20.00
2010,05,19,06,42,17.30
2010,05,19,06,43,22.70
2010,05,19,06,44,25.50
2010,05,19,06,45,24.00
2010,05,19,06,46,22.00
2010,05,19,06,47,23.10
2010,05,19,06,48,18.90
2010,05,19,06,49,21.30
2010,05,19,06,50,17.10
2010,05,19,06,51,23.50
2010,05,19,06,52,22.40
2010,05,19,06,53,22.90
2010,05,19,06,54,17.80
2010,05,19,06,55,21.80
2010,05,19,06,56,20.40
2010,05,19,06,57,19.20
2010,05,19,06,58,18.60
2010,05,19,06,59,23.10
2010,05,19,07,00,18.30
2010,05,19,07,01,23.90
2010,05,19,07,02,19.60
2010,05,19,07,03,16.70
2010,05,19,07,04,19.00
2010,05,19,07,05,16.10
2010,05,19,07,06,19.80
2010,05,19,07,07,20.30
2010,05,19,07,08,17.30
2010,05,19,07,09,18.40
2010,05,19,07,10,19.30
2010,05,19,07,11,20.70
2010,05,19,07,12,18.10
2010,05,19,07,13,21.60
2010,05,19,07,14,20.80
2010,05,19,07,15,20.00
2010,05,19,07,16,23.80
2010,05,19,07,17,18.80
2010,05,19,07,18,14.60
2010,05,19,07,19,17.10
2010,05,19,07,20,18.10
2010,05,19,07,21,18.50
2010,05,19,07,22,15.80
2010,05,19,07,23,17.20
2010,05,19,07,24,18.80
2010,05,19,07,25,18.90
2010,05,19,07,26,19.60
2010,05,19,07,27,19.10
2010,05,19,07,28,17.70
2010,05,19,07,29,14.60
2010,05,19,07,30,15.50
2010,05,19,07,31,14.00
2010,05,19,07,32,15.50
2010,05,19,07,33,14.50
2010,05,19,07,34,13.80
2010,05,19,07,35,18.90
2010,05,19,07,36,12.90
2010,05,19,07,37,15.10
2010,05,19,07,38,11.20
2010,05,19,07,39,10.00
2010,05,19,07,40,13.20
2010,05,19,07,41,16.90
2010,05,19,07,42,22.00
2010,05,19,07,43,16.30
2010,05,19,07,44,14.00
2010,05,19,07,45,15.30
2010,05,19,07,46,16.60
2010,05,19,07,47,18.70
2010,05,19,07,48,20.20
2010,05,19,07,49,23.20
2010,05,19,07,50,21.60
2010,05,19,07,51,15.90
2010,05,19,07,52,15.00
2010,05,19,07,53,14.50
2010,05,19,07,54,14.50
2010,05,19,07,55,13.00
2010,05,19,07,56,14.10
2010,05,19,07,57,18.00
2010,05,19,07,58,15.50
2010,05,19,07,59,15.60
2010,05,19,08,00,12.20
2010,05,19,08,01,13.20
2010,05,19,08,02,14.90
2010,05,19,08,03,11.50
2010,05,19,08,04,16.80
2010,05,19,08,05,16.10
2010,05,19,08,06,13.00
2010,05,19,08,07,14.70
2010,05,19,08,08,16.90
2010,05,19,08,09,14.50
2010,05,19,08,10,18.90
2010,05,19,08,11,17.70
2010,05,19,08,12,16.90
2010,05,19,08,13,10.80
2010,05,19,08,14,12.60
2010,05,19,08,15,18.30
2010,05,19,08,16,15.70
2010,05,19,08,17,12.60
2010,05,19,08,18,10.30
2010,05,19,08,19,14.60
2010,05,19,08,20,13.70
2010,05,19,08,21,19.70
2010,05,19,08,22,19.50
2010,05,19,08,23,17.10
2010,05,19,08,24,18.60
2010,05,19,08,25,14.10
2010,05,19,08,26,22.90
2010,05,19,08,27,19.20
2010,05,19,08,28,17.90
2010,05,19,08,29,16.30
2010,05,19,08,30,15.70
2010,05,19,08,31,18.00
2010,05,19,08,32,20.20
2010,05,19,08,33,15.90
2010,05,19,08,34,19.20
2010,05,19,08,35,19.40
2010,05,19,08,36,21.30
2010,05,19,08,37,18.90
2010,05,19,08,38,16.90
2010,05,19,08,39,20.20
2010,05,19,08,40,16.30
2010,05,19,08,41,16.00
2010,05,19,08,42,23.10
2010,05,19,08,43,22.20
2010,05,19,08,44,19.10
2010,05,19,08,45,18.20
2010,05,19,08,46,19.40
2010,05,19,08,47,14.50
2010,05,19,08,48,14.90
2010,05,19,08,49,16.30
2010,05,19,08,50,19.10
2010,05,19,08,51,21.10
2010,05,19,08,52,18.80
2010,05,19,08,53,16.80
2010,05,19,08,54,19.60
2010,05,19,08,55,22.60
2010,05,19,08,56,21.00
2010,05,19,08,57,22.10
2010,05,19,08,58,18.40
2010,05,19,08,59,23.00
2010,05,19,09,00,20.00
2010,05,19,09,01,20.10
2010,05,19,09,02,21.90
2010,05,19,09,03,21.20
2010,05,19,09,04,17.40
2010,05,19,09,05,26.20
2010,05,19,09,06,26.30
2010,05,19,09,07,23.60
2010,05,19,09,08,19.40
2010,05,19,09,09,28.40
2010,05,19,09,10,23.20
2010,05,19,09,11,25.50
2010,05,19,09,12,22.40
2010,05,19,09,13,22.30
2010,05,19,09,14,19.40
2010,05,19,09,15,24.10
2010,05,19,09,16,23.20
2010,05,19,09,17,24.10
2010,05,19,09,18,26.40
2010,05,19,09,19,21.60
2010,05,19,09,20,25.30
2010,05,19,09,21,21.80
2010,05,19,09,22,19.30
2010,05,19,09,23,24.40
2010,05,19,09,24,22.00
2010,05,19,09,25,21.30
2010,05,19,09,26,19.10
2010,05,19,09,27,15.80
2010,05,19,09,28,18.70
2010,05,19,09,29,24.10
2010,05,19,09,30,24.00
2010,05,19,09,31,25.10
2010,05,19,09,32,23.60
2010,05,19,09,33,24.50
2010,05,19,09,34,22.60
2010,05,19,09,35,26.40
2010,05,19,09,36,23.00
2010,05,19,09,37,19.40
2010,05,19,09,38,23.80
2010,05,19,09,39,23.60
2010,05,19,09,40,20.90
2010,05,19,09,41,22.40
2010,05,19,09,42,21.70
2010,05,19,09,43,20.20
2010,05,19,09,44,18.20
2010,05,19,09,45,20.50
2010,05,19,09,46,20.90
2010,05,19,09,47,17.90
2010,05,19,09,48,21.60
2010,05,19,09,49,27.80
2010,05,19,09,50,24.60
2010,05,19,09,51,22.70
2010,05,19,09,52,18.70
2010,05,19,09,53,22.50
2010,05,19,09,54,22.00
2010,05,19,09,55,24.30
2010,05,19,09,56,23.90
2010,05,19,09,57,24.80
2010,05,19,09,58,21.30
2010,05,19,09,59,18.90
2010,05,19,10,00,19.90
2010,05,19,10,01,25.60
2010,05,19,10,02,26.00
2010,05,19,10,03,25.60
2010,05,19,10,04,24.70
2010,05,19,10,05,26.10
2010,05,19,10,06,25.10
2010,05,19,10,07,24.90
2010,05,19,10,08,23.60
2010,05,19,10,09,24.10
2010,05,19,10,10,25.60
2010,05,19,10,11,20.60
2010,05,19,10,12,23.40
2010,05,19,10,13,24.10
2010,05,19,10,14,22.50
2010,05,19,10,15,21.50
2010,05,19,10,16,19.20
2010,05,19,10,17,21.20
2010,05,19,10,18,20.50
2010,05,19,10,19,20.80
2010,05,19,10,20,24.60
2010,05,19,10,21,19.60
2010,05,19,10,22,23.20
2010,05,19,10,23,21.70
2010,05,19,10,24,21.30
2010,05,19,10,25,20.80
2010,05,19,10,26,20.80
2010,05,19,10,27,23.20
2010,05,19,10,28,22.30
2010,05,19,10,29,22.60
2010,05,19,10,30,23.70
2010,05,19,10,31,24.40
2010,05,19,10,32,24.10
2010,05,19,10,33,24.70
2010,05,19,10,34,20.50
2010,05,19,10,35,17.80
2010,05,19,10,36,18.60
2010,05,19,10,37,16.40
2010,05,19,10,38,18.60
2010,05,19,10,39,15.70
2010,05,19,10,40,17.90
2010,05,19,10,41,17.20
2010,05,19,10,42,14.10
2010,05,19,10,43,19.10
2010,05,19,10,44,14.70
2010,05,19,10,45,14.60
2010,05,19,10,46,10.70
2010,05,19,10,47,10.90
2010,05,19,10,48,16.30
2010,05,19,10,49,20.30
2010,05,19,10,50,18.10
2010,05,19,10,51,17.80
2010,05,19,10,52,14.30
2010,05,19,10,53,17.30
2010,05,19,10,54,20.10
2010,05,19,10,55,16.70
2010,05,19,10,56,19.40
2010,05,19,10,57,23.30
2010,05,19,10,58,21.90
2010,05,19,10,59,17.40
2010,05,19,11,00,19.20
2010,05,19,11,01,21.40
2010,05,19,11,02,24.00
2010,05,19,11,03,30.90
2010,05,19,11,04,28.20
2010,05,19,11,05,28.10
2010,05,19,11,06,26.30
2010,05,19,11,07,25.30
2010,05,19,11,08,24.50
2010,05,19,11,09,26.10
2010,05,19,11,10,20.50
2010,05,19,11,11,15.80
2010,05,19,11,12,20.40
2010,05,19,11,13,16.70
2010,05,19,11,14,17.60
2010,05,19,11,15,17.50
2010,05,19,11,16,15.20
2010,05,19,11,17,13.60
2010,05,19,11,18,17.10
2010,05,19,11,19,14.40
2010,05,19,11,20,13.50
2010,05,19,11,21,19.80
2010,05,19,11,22,17.50
2010,05,19,11,23,19.70
2010,05,19,11,24,15.60
2010,05,19,11,25,10.80
2010,05,19,11,26,17.40
2010,05,19,11,27,19.90
2010,05,19,11,28,28.10
2010,05,19,11,29,20.80
2010,05,19,11,30,22.60
2010,05,19,11,31,24.50
2010,05,19,11,32,17.80
2010,05,19,11,33,15.30
2010,05,19,11,34,21.20
2010,05,19,11,35,20.30
2010,05,19,11,36,19.50
2010,05,19,11,37,15.60
2010,05,19,11,38,16.00
2010,05,19,11,39,20.00
2010,05,19,11,40,17.30
2010,05,19,11,41,13.70
2010,05,19,11,42,14.10
2010,05,19,11,43,13.90
2010,05,19,11,44,14.60
2010,05,19,11,45,17.90
2010,05,19,11,46,16.40
2010,05,19,11,47,15.60
2010,05,19,11,48,21.00
2010,05,19,11,49,27.20
2010,05,19,11,50,35.40
2010,05,19,11,51,24.20
2010,05,19,11,52,22.60
2010,05,19,11,53,25.70
2010,05,19,11,54,18.50
2010,05,19,11,55,23.90
2010,05,19,11,56,22.90
2010,05,19,11,57,17.40
2010,05,19,11,58,24.70
2010,05,19,11,59,22.50
2010,05,19,12,00,22.90
2010,05,19,12,01,16.60
2010,05,19,12,02,20.90
2010,05,19,12,03,22.10
2010,05,19,12,04,20.30
2010,05,19,12,05,21.60
2010,05,19,12,06,16.40
2010,05,19,12,07,15.80
2010,05,19,12,08,19.00
2010,05,19,12,09,20.30
2010,05,19,12,10,12.50
2010,05,19,12,11,16.40
2010,05,19,12,12,18.60
2010,05,19,12,13,24.10
2010,05,19,12,14,9.70
2010,05,19,12,15,12.50
2010,05,19,12,16,14.00
2010,05,19,12,17,16.50
2010,05,19,12,18,18.00
2010,05,19,12,19,20.00
2010,05,19,12,20,20.50
2010,05,19,12,21,18.70
2010,05,19,12,22,17.90
2010,05,19,12,23,20.40
2010,05,19,12,24,20.30
2010,05,19,12,25,15.30
2010,05,19,12,26,18.10
2010,05,19,12,27,18.80
2010,05,19,12,28,18.60
2010,05,19,12,29,19.60
2010,05,19,12,30,21.40
2010,05,19,12,31,22.20
2010,05,19,12,32,15.80
2010,05,19,12,33,18.60
2010,05,19,12,34,24.50
2010,05,19,12,35,22.80
2010,05,19,12,36,19.60
2010,05,19,12,37,12.40
2010,05,19,12,38,21.20
2010,05,19,12,39,16.30
2010,05,19,12,40,18.30
2010,05,19,12,41,12.30
2010,05,19,12,42,17.00
2010,05,19,12,43,20.30
2010,05,19,12,44,19.50
2010,05,19,12,45,16.80
2010,05,19,12,46,22.30
2010,05,19,12,47,18.80
2010,05,19,12,48,16.70
2010,05,19,12,49,17.00
2010,05,19,12,50,23.10
2010,05,19,12,51,22.20
2010,05,19,12,52,20.60
2010,05,19,12,53,20.20
2010,05,19,12,54,24.10
2010,05,19,12,55,21.50
2010,05,19,12,56,20.80
2010,05,19,12,57,16.20
2010,05,19,12,58,20.90
2010,05,19,12,59,22.80
2010,05,19,13,00,20.80
2010,05,19,13,01,20.80
2010,05,19,13,02,20.60
2010,05,19,13,03,19.80
2010,05,19,13,04,15.00
2010,05,19,13,05,16.00
2010,05,19,13,06,16.20
2010,05,19,13,07,16.50
2010,05,19,13,08,21.30
2010,05,19,13,09,20.00
2010,05,19,13,10,20.40
2010,05,19,13,11,24.40
2010,05,19,13,12,23.50
2010,05,19,13,13,16.00
2010,05,19,13,14,14.80
2010,05,19,13,15,19.50
2010,05,19,13,16,14.30
2010,05,19,13,17,10.70
2010,05,19,13,18,10.10
2010,05,19,13,19,14.10
2010,05,19,13,20,14.10
2010,05,19,13,21,11.30
2010,05,19,13,22,10.50
2010,05,19,13,23,9.80
2010,05,19,13,24,9.80
2010,05,19,13,25,13.60
2010,05,19,13,26,12.70
2010,05,19,13,27,13.90
2010,05,19,13,28,11.30
2010,05,19,13,29,14.80
2010,05,19,13,30,11.80
2010,05,19,13,31,15.00
2010,05,19,13,32,14.00
2010,05,19,13,33,14.50
2010,05,19,13,34,15.10
2010,05,19,13,35,15.40
2010,05,19,13,36,18.20
2010,05,19,13,37,14.60
2010,05,19,13,38,15.30
2010,05,19,13,39,16.20
2010,05,19,13,40,15.80
2010,05,19,13,41,13.80
2010,05,19,13,42,14.10
2010,05,19,13,43,12.10
2010,05,19,13,44,6.70
2010,05,19,13,45,12.00
2010,05,19,13,46,12.70
2010,05,19,13,47,16.70
2010,05,19,13,48,13.20
2010,05,19,13,49,8.00
2010,05,19,13,50,11.60
2010,05,19,13,51,14.50
2010,05,19,13,52,14.60
2010,05,19,13,53,15.80
2010,05,19,13,54,14.90
2010,05,19,13,55,14.90
2010,05,19,13,56,15.30
2010,05,19,13,57,12.70
2010,05,19,13,58,12.00
2010,05,19,13,59,13.60
2010,05,19,14,00,12.50
2010,05,19,14,01,13.10
2010,05,19,14,02,18.00
2010,05,19,14,03,12.50
2010,05,19,14,04,9.00
2010,05,19,14,05,9.00
2010,05,19,14,06,12.00
2010,05,19,14,07,7.60
2010,05,19,14,08,12.10
2010,05,19,14,09,13.70
2010,05,19,14,10,8.80
2010,05,19,14,11,10.20
2010,05,19,14,12,11.60
2010,05,19,14,13,10.70
2010,05,19,14,14,9.40
2010,05,19,14,15,8.80
2010,05,19,14,16,7.00
2010,05,19,14,17,5.90
2010,05,19,14,18,8.50
2010,05,19,14,19,8.00
2010,05,19,14,20,10.50
2010,05,19,14,21,7.60
2010,05,19,14,22,7.00
2010,05,19,14,23,6.90
2010,05,19,14,24,3.60
2010,05,19,14,25,10.80
2010,05,19,14,26,12.80
2010,05,19,14,27,18.60
2010,05,19,14,28,19.20
2010,05,19,14,29,14.50
2010,05,19,14,30,16.50
2010,05,19,14,31,12.60
2010,05,19,14,32,16.10
2010,05,19,14,33,7.60
2010,05,19,14,34,6.60
2010,05,19,14,35,9.10
2010,05,19,14,36,12.30
2010,05,19,14,37,13.00
2010,05,19,14,38,13.40
2010,05,19,14,39,8.80
2010,05,19,14,40,5.80
2010,05,19,14,41,8.30
2010,05,19,14,42,11.50
2010,05,19,14,43,12.10
2010,05,19,14,44,12.80
2010,05,19,14,45,11.90
2010,05,19,14,46,10.00
2010,05,19,14,47,8.50
2010,05,19,14,48,9.00
2010,05,19,14,49,11.20
2010,05,19,14,50,12.80
2010,05,19,14,51,18.70
2010,05,19,14,52,14.70
2010,05,19,14,53,11.90
2010,05,19,14,54,10.50
2010,05,19,14,55,15.40
2010,05,19,14,56,16.20
2010,05,19,14,57,15.40
2010,05,19,14,58,15.30
2010,05,19,14,59,17.70
2010,05,19,15,00,16.60
2010,05,19,15,01,16.30
2010,05,19,15,02,13.70
2010,05,19,15,03,13.00
2010,05,19,15,04,16.70
2010,05,19,15,05,18.80
2010,05,19,15,06,15.30
2010,05,19,15,07,14.90
2010,05,19,15,08,16.20
2010,05,19,15,09,23.20
2010,05,19,15,10,20.40
2010,05,19,15,11,21.20
2010,05,19,15,12,18.30
2010,05,19,15,13,13.40
2010,05,19,15,14,17.30
2010,05,19,15,15,15.40
2010,05,19,15,16,17.80
2010,05,19,15,17,17.70
2010,05,19,15,18,21.60
2010,05,19,15,19,19.60
2010,05,19,15,20,17.50
2010,05,19,15,21,15.00
2010,05,19,15,22,16.30
2010,05,19,15,23,17.00
2010,05,19,15,24,18.80
2010,05,19,15,25,21.10
2010,05,19,15,26,12.50
2010,05,19,15,27,13.90
2010,05,19,15,28,15.40
2010,05,19,15,29,16.40
2010,05,19,15,30,19.00
2010,05,19,15,31,14.90
2010,05,19,15,32,17.50
2010,05,19,15,33,14.50
2010,05,19,15,34,16.30
2010,05,19,15,35,15.60
2010,05,19,15,36,13.70
2010,05,19,15,37,8.10
2010,05,19,15,38,16.70
2010,05,19,15,39,11.00
2010,05,19,15,40,14.30
2010,05,19,15,41,25.70
2010,05,19,15,42,15.20
2010,05,19,15,43,14.00
2010,05,19,15,44,15.40
2010,05,19,15,45,11.30
2010,05,19,15,46,16.90
2010,05,19,15,47,12.70
2010,05,19,15,48,16.60
2010,05,19,15,49,16.00
2010,05,19,15,50,17.10
2010,05,19,15,51,11.00
2010,05,19,15,52,9.00
2010,05,19,15,53,11.00
2010,05,19,15,54,10.60
2010,05,19,15,55,9.30
2010,05,19,15,56,14.40
2010,05,19,15,57,11.60
2010,05,19,15,58,15.00
2010,05,19,15,59,20.70
2010,05,19,16,00,13.80
2010,05,19,16,01,19.30
2010,05,19,16,02,16.30
2010,05,19,16,03,13.80
2010,05,19,16,04,16.90
2010,05,19,16,05,14.00
2010,05,19,16,06,15.20
2010,05,19,16,07,13.40
2010,05,19,16,08,13.40
2010,05,19,16,09,13.10
2010,05,19,16,10,13.50
2010,05,19,16,11,14.80
2010,05,19,16,12,14.70
2010,05,19,16,13,16.50
2010,05,19,16,14,14.80
2010,05,19,16,15,14.30
2010,05,19,16,16,14.50
2010,05,19,16,17,11.30
2010,05,19,16,18,16.00
2010,05,19,16,19,14.10
2010,05,19,16,20,12.90
2010,05,19,16,21,13.60
2010,05,19,16,22,13.80
2010,05,19,16,23,15.60
2010,05,19,16,24,10.80
2010,05,19,16,25,13.90
2010,05,19,16,26,13.00
2010,05,19,16,27,14.50
2010,05,19,16,28,15.10
2010,05,19,16,29,11.20
2010,05,19,16,30,13.00
2010,05,19,16,31,14.00
2010,05,19,16,32,9.90
2010,05,19,16,33,10.40
2010,05,19,16,34,10.20
2010,05,19,16,35,14.00
2010,05,19,16,36,13.40
2010,05,19,16,37,10.00
2010,05,19,16,38,14.70
2010,05,19,16,39,14.80
2010,05,19,16,40,14.20
2010,05,19,16,41,12.20
2010,05,19,16,42,11.80
2010,05,19,16,43,12.90
2010,05,19,16,44,11.40
2010,05,19,16,45,10.80
2010,05,19,16,46,9.70
2010,05,19,16,47,9.20
2010,05,19,16,48,12.10
2010,05,19,16,49,8.70
2010,05,19,16,50,12.30
2010,05,19,16,51,11.00
2010,05,19,16,52,8.30
2010,05,19,16,53,8.20
2010,05,19,16,54,13.10
2010,05,19,16,55,11.90
2010,05,19,16,56,13.00
2010,05,19,16,57,13.70
2010,05,19,16,58,10.30
2010,05,19,16,59,10.60
2010,05,19,17,00,11.10
2010,05,19,17,01,14.10
2010,05,19,17,02,15.00
2010,05,19,17,03,12.90
2010,05,19,17,04,13.80
2010,05,19,17,05,13.30
2010,05,19,17,06,15.50
2010,05,19,17,07,13.70
2010,05,19,17,08,10.40
2010,05,19,17,09,12.90
2010,05,19,17,10,15.80
2010,05,19,17,11,14.50
2010,05,19,17,12,10.60
2010,05,19,17,13,15.60
2010,05,19,17,14,12.40
2010,05,19,17,15,9.90
2010,05,19,17,16,10.90
2010,05,19,17,17,11.00
2010,05,19,17,18,13.00
2010,05,19,17,19,11.70
2010,05,19,17,20,13.50
2010,05,19,17,21,15.90
2010,05,19,17,22,15.60